Regional Weather Roundup
Issued by NWS

Home | Current Version | Previous Version | Graphics & Text | Print | Product List | Glossary On
Versions: 1 2 3 4 5 6 7 8 9 10 11 12 13 14 15 16 17 18 19 20 21 22 23 24 25 26 27 28 29 30 31 32 33 34 35 36 37 38 39 40 41 42 43 44 45 46 47 48 49 50
000
ASUS43 KIND 211409
RWRIN

WEATHER ROUNDUP FOR INDIANA
NATIONAL WEATHER SERVICE INDIANAPOLIS IN
1000 AM EDT MON MAY 21 2018

NOTE: "FAIR" INDICATES FEW OR NO CLOUDS BELOW 12,000 FEET WITH NO
SIGNIFICANT WEATHER AND/OR OBSTRUCTIONS TO VISIBILITY.

* - STATION DOES NOT REPORT WEATHER SUCH AS PRECIPITATION OR FOG.

+ - STATION NOT QUALITY CONTROLLED BY THE NATIONAL WEATHER SERVICE.
    USE DATA WITH CAUTION...ESPECIALLY DEWPOINT AND RELATIVE
    HUMIDITY OBSERVATIONS.

INZ001>003-010>013-019-020-211500-
NORTHWEST INDIANA

CITY           SKY/WX    TMP DP  RH WIND       PRES   REMARKS
GARY /AIRPORT/ RAIN      55  55 100 CALM      30.15R VSB 3/4
KNOX *+        CLOUDY    61  55  82 SE16      30.13F
LA PORTE +     CLOUDY    59  58  94 E10       30.14F FOG
MICHIGAN CITY+ CLOUDY    59  59 100 E3        30.15R FOG
MONTICELLO +   FAIR      64  58  81 E8        30.12F
RENSSELAER +   CLOUDY    63  55  77 E9        30.12S
VALPARAISO     LGT RAIN  62  59  90 E6        30.14R FOG

$$

LMZ046-743>745-211500-
SOUTHERN LAKE MICHIGAN

STATION/POSITION TIME  TEMP    WIND        PRES    WAVE
                       AIR SEA DIR/SP/G            HT
                 (UTC) (F)     (DEG/KT/KT) (MB)    (FT)
BURNS HARBOR     1400   55      CALM  / 18 1021.0
5NW MICH CITY    1350   55 53  320/  2/  6   N/A     1

$$

INZ004-005-014>016-021>024-211500-
NORTH CENTRAL INDIANA

CITY           SKY/WX    TMP DP  RH WIND       PRES   REMARKS
ELKHART        FAIR      61  54  77 E14       30.15F
GOSHEN         PTSUNNY   61  55  81 E12       30.17R HAZE
LOGANSPORT +   CLOUDY    63  55  77 E13       30.14F
ROCHESTER +    PTSUNNY   63  55  77 E10G21    30.15F
SOUTH BEND     LGT RAIN  59  56  89 SE9       30.17R FOG
WARSAW +       PTSUNNY   59  54  82 SE12G22   30.17R

$$

INZ006>009-017-018-025>027-211500-
NORTHEAST INDIANA

CITY           SKY/WX    TMP DP  RH WIND       PRES   REMARKS
ANGOLA *+      FAIR      57  48  72 E14G20    30.18F
AUBURN +       FAIR      59  52  77 E8G16     30.21R
FORT WAYNE     CLOUDY    61  53  75 E14       30.18F
HUNTINGTON +   CLOUDY    60  53  78 E8        30.17S

$$

INZ028-029-035-036-043>045-051>053-211500-
WEST CENTRAL INDIANA

CITY           SKY/WX    TMP DP  RH WIND       PRES   REMARKS
CRAWFORDSVL +    N/A    N/A N/A N/A MISG        N/A
GREENCASTLE +  FAIR      70  64  83 S5        30.13R
LAFAYETTE      PTSUNNY   65  61  87 E8        30.11S
TERRE HAUTE    FAIR      73  67  81 S10       30.11R

$$

INZ030>032-037>040-046>048-054>057-064-065-211500-
CENTRAL INDIANA

CITY           SKY/WX    TMP DP  RH WIND       PRES   REMARKS
ANDERSON       SUNNY     68  59  73 E12       30.15S
COLUMBUS       SUNNY     70  64  83 E7        30.13F
FISHERS *+     FAIR      70  66  88 SE8       30.14
FRANKFORT +    FAIR      69  63  81 SE13      30.14R
GREENWOOD *+   FAIR      69  64  85 SE7       30.14S
INDIANAPOLIS   CLOUDY    71  64  78 SE10      30.11F
-EAGLE CREEK   FAIR      71  62  73 SE9       30.11F
KOKOMO +       PTSUNNY   63  58  83 E16       30.15S
MARION +       PTSUNNY   62  56  82 E10       30.16S
MT COMFORT *+  FAIR      72  66  83 SE8       30.14S
SHELBYVILLE    FAIR      69  63  81 SE6       30.13R
ZIONSVILLE +   FAIR      66  62  85 SE10      30.13F

$$

INZ033-034-041-042-049-050-058-059-211500-
EAST CENTRAL INDIANA

CITY           SKY/WX    TMP DP  RH WIND       PRES   REMARKS
MUNCIE         FAIR      67  58  72 E10       30.16R
RICHMOND +     FAIR      64  63  94 E10       30.17R

$$

INZ060-061-067>069-081>083-085>088-211500-
SOUTHWEST INDIANA

CITY           SKY/WX    TMP DP  RH WIND       PRES   REMARKS
EVANSVILLE     PTSUNNY   73  66  78 S5        30.12S
HUNTINGBURG +  FAIR      75  66  73 SE8       30.13R
WASHINGTON +   FAIR      73  63  70 S3        30.12S

$$

INZ062-063-066-070>080-084-089>092-211500-
SOUTH CENTRAL AND SOUTHEAST INDIANA

CITY           SKY/WX    TMP DP  RH WIND       PRES   REMARKS
BATESVILLE +   SUNNY     70  68  94 SE7       30.15R
BEDFORD +      PTSUNNY   73  63  68 S6        30.12R
BLOOMINGTON    FAIR      73  66  78 S7        30.12R
FRENCH LICK *+ FAIR      73  61  64 S3        30.13S
MADISON *+     FAIR      73  68  83 CALM      30.16S
NORTH VERNON + FAIR      72  66  83 S3        30.14R
SEYMOUR +      FAIR      79  63  57 SE5       30.12S

$$





USA.gov is the U.S. government's official web portal to all federal, state and local government web resources and services.